This is the latest recevied weather packets stored in our database for station/object HS3UAA-1. If no packets are shown the sender has not sent any weather packets the latest 10 day(s).
| Time | Temp. | Humidity | Pressure | Rain* | Wind** | Luminosity | Snow |
|---|---|---|---|---|---|---|---|
| 1787962742 | 30° C | 49% | 996 hPa | - | - | 0 W/m² | - |
| 1787962420 | 30° C | 46% | 996 hPa | - | - | 0 W/m² | - |
| 1787962098 | 30.56° C | 44% | 995 hPa | - | - | 0 W/m² | - |
| 1787961776 | 31.67° C | 48% | 996 hPa | - | - | 0 W/m² | - |
| 1787961454 | 32.22° C | 53% | 996 hPa | - | - | 0 W/m² | - |
| 1787961132 | 32.22° C | 52% | 995 hPa | - | - | 0 W/m² | - |
| 1787960810 | 32.78° C | 51% | 995 hPa | - | - | 0 W/m² | - |
| 1787960488 | 33.33° C | 50% | 995 hPa | - | - | 0 W/m² | - |
| 1787960166 | 32.78° C | 51% | 995 hPa | - | - | 0 W/m² | - |
| 1787959647 | 32.22° C | 52% | 995 hPa | - | - | 0 W/m² | - |
| 1787959325 | 32.78° C | 52% | 995 hPa | - | - | 0 W/m² | - |
| 1787959003 | 32.78° C | 52% | 995 hPa | - | - | 0 W/m² | - |
| 1787958681 | 32.78° C | 51% | 995 hPa | - | - | 0 W/m² | - |
| 1787958359 | 32.78° C | 50% | 995 hPa | - | - | 0 W/m² | - |
| 1787958037 | 32.22° C | 52% | 995 hPa | - | - | 0 W/m² | - |
| 1787957715 | 32.22° C | 52% | 995 hPa | - | - | 0 W/m² | - |
| 1787957393 | 33.33° C | 50% | 995 hPa | - | - | 0 W/m² | - |
| 1787957071 | 32.78° C | 52% | 995 hPa | - | - | 0 W/m² | - |
| 1787956749 | 33.33° C | 50% | 995 hPa | - | - | 0 W/m² | - |
| 1787956427 | 32.78° C | 51% | 995 hPa | - | - | 0 W/m² | - |
| 1787956105 | 33.33° C | 50% | 995 hPa | - | - | 0 W/m² | - |
| 1787955783 | 32.78° C | 51% | 995 hPa | - | - | 0 W/m² | - |
| 1787955461 | 32.78° C | 51% | 995 hPa | - | - | 0 W/m² | - |
| 1787955138 | 32.22° C | 52% | 995 hPa | - | - | 0 W/m² | - |
| 1787954816 | 32.78° C | 51% | 995 hPa | - | - | 0 W/m² | - |
* Rain since midnight (hover to see other rain measurements)
** Current wind speed in m/s (hover to see current wind gust speed)